Flag for Pakistan Weather past 2 weeks in Rawalpindi, Pakistan

Now
81 °F

Broken clouds.


Feels Like: 84 °F
Forecast: 82 / 98 °F
Wind: 16 mph from Southeast

Location: Islamabad Airport

Current Time: Jul 6, 2015 at 6:16:20 AM

Latest Report: Jul 6, 2015 at 6:00 AM


Visibility: 2 mi

Pressure: 29.50 "Hg (27.86 "Hg at 501m altitude)

Humidity: 70%

Dew point: 70 °F

Location of RawalpindiLocation

Historic Weather in Rawalpindi — Graph

°F

Rawalpindi temperature yesterday

Maximum temperature yesterday: 104 °F (at 5:00 PM)
Minimum temperature yesterday: 86 °F (at 5:00 AM)
Average temperature yesterday: 95 °F

Past Weeks' High & Low Weather Summary

 TemperatureHumidityPressure
High147 °F (Jun 21, 7:00 AM)94% (Jun 24, 11:00 AM)29.80 "Hg (Jun 24, 11:00 AM)
Low66 °F (Jun 24, 11:00 AM)8% (Jun 21, 7:00 AM)29.42 "Hg (Jul 5, 3:00 PM)
Average88 °F51%29.59 "Hg
* Reported Jun 21 7:00 AM — Jul 6 5:00 AM, Rawalpindi, Weather by CustomWeather, © 2015

Note: Actual official high and low records may vary slightly from our data, if they occured in-between our weather recording intervals... More about our weather records

Advertising

Rawalpindi weather history for previous 24 hours

 ConditionsComfort  
Time TempWeatherWind HumidityBarometerVisibility
5:00 AM
Mon, Jul 6
82 °FPartly cloudy.14 mph66%29.47 "Hg2 mi
4:00 AM84 °FPassing clouds.12 mph66%29.45 "Hg2 mi
3:00 AM84 °FThundershowers. Passing clouds.7 mph66%29.42 "Hg2 mi
2:00 AM84 °FThundershowers. Passing clouds.7 mph66%29.42 "Hg2 mi
1:00 AM86 °FThundershowers. Passing clouds.18 mph59%29.47 "Hg2 mi
12:00 AM88 °FThunderstorms. Partly cloudy.35 mph62%29.47 "Hg2 mi
11:00 PM
Sun, Jul 5
95 °FThundershowers. Passing clouds.7 mph50%29.45 "Hg2 mi
10:00 PM95 °FPassing clouds.9 mph47%29.45 "Hg2 mi
9:00 PM95 °FPassing clouds.12 mph47%29.45 "Hg2 mi
8:00 PM99 °FHaze.9 mph42%29.42 "Hg2 mi
7:00 PM100 °FHaze.7 mph37%29.42 "Hg2 mi
6:00 PM102 °FHaze.7 mph37%29.42 "Hg2 mi
5:00 PM104 °FHaze.9 mph38%29.42 "Hg2 mi
4:00 PM102 °FHaze.9 mph37%29.42 "Hg2 mi
3:00 PM102 °FHaze.9 mph37%29.42 "Hg2 mi
2:00 PM102 °FHaze.9 mph40%29.45 "Hg2 mi
1:00 PM100 °FScattered clouds.14 mph42%29.47 "Hg2 mi
12:00 PM99 °FScattered clouds.7 mph44%29.47 "Hg3 mi
11:00 AM99 °FScattered clouds.7 mph44%29.47 "Hg3 mi
10:00 AM95 °FScattered clouds.7 mph50%29.47 "Hg3 mi
9:00 AM93 °FScattered clouds.7 mph53%29.50 "Hg2 mi
8:00 AM90 °FPassing clouds.7 mph63%29.50 "Hg2 mi
7:00 AM88 °FPassing clouds.5 mph62%29.50 "Hg2 mi
6:00 AM88 °FPassing clouds.5 mph62%29.50 "Hg3 mi
Weather by CustomWeather, © 2015

See weather overviewHow to use our weather pages